Year,Month,Day,Hour,Minute,Value (Times are PST for temperature in C)
2006,10,11,00,00,5.90
2006,10,11,00,01,5.90
2006,10,11,00,02,5.90
2006,10,11,00,03,5.80
2006,10,11,00,04,5.80
2006,10,11,00,05,5.80
2006,10,11,00,06,5.80
2006,10,11,00,07,5.80
2006,10,11,00,08,5.80
2006,10,11,00,09,5.80
2006,10,11,00,10,5.80
2006,10,11,00,11,5.80
2006,10,11,00,12,5.80
2006,10,11,00,13,5.80
2006,10,11,00,14,5.70
2006,10,11,00,15,5.70
2006,10,11,00,16,5.70
2006,10,11,00,17,5.70
2006,10,11,00,18,5.70
2006,10,11,00,19,5.70
2006,10,11,00,20,5.70
2006,10,11,00,21,5.70
2006,10,11,00,22,5.70
2006,10,11,00,23,5.70
2006,10,11,00,24,5.60
2006,10,11,00,25,5.60
2006,10,11,00,26,5.60
2006,10,11,00,27,5.60
2006,10,11,00,28,5.60
2006,10,11,00,29,5.60
2006,10,11,00,30,5.60
2006,10,11,00,31,5.60
2006,10,11,00,32,5.60
2006,10,11,00,33,5.60
2006,10,11,00,34,5.60
2006,10,11,00,35,5.50
2006,10,11,00,36,5.50
2006,10,11,00,37,5.50
2006,10,11,00,38,5.50
2006,10,11,00,39,5.50
2006,10,11,00,40,5.50
2006,10,11,00,41,5.40
2006,10,11,00,42,5.40
2006,10,11,00,43,5.40
2006,10,11,00,44,5.40
2006,10,11,00,45,5.40
2006,10,11,00,46,5.40
2006,10,11,00,47,5.40
2006,10,11,00,48,5.40
2006,10,11,00,49,5.40
2006,10,11,00,50,5.30
2006,10,11,00,51,5.30
2006,10,11,00,52,5.30
2006,10,11,00,53,5.30
2006,10,11,00,54,5.30
2006,10,11,00,55,5.30
2006,10,11,00,56,5.30
2006,10,11,00,57,5.20
2006,10,11,00,58,5.20
2006,10,11,00,59,5.20
2006,10,11,01,00,5.20
2006,10,11,01,01,5.20
2006,10,11,01,02,5.20
2006,10,11,01,03,5.20
2006,10,11,01,04,5.20
2006,10,11,01,05,5.20
2006,10,11,01,06,5.10
2006,10,11,01,07,5.10
2006,10,11,01,08,5.10
2006,10,11,01,09,5.10
2006,10,11,01,10,5.10
2006,10,11,01,11,5.10
2006,10,11,01,12,5.10
2006,10,11,01,13,5.10
2006,10,11,01,14,5.10
2006,10,11,01,15,5.10
2006,10,11,01,16,5.10
2006,10,11,01,17,5.00
2006,10,11,01,18,5.00
2006,10,11,01,19,5.00
2006,10,11,01,20,5.00
2006,10,11,01,21,5.00
2006,10,11,01,22,5.00
2006,10,11,01,23,4.90
2006,10,11,01,24,4.90
2006,10,11,01,25,4.90
2006,10,11,01,26,4.90
2006,10,11,01,27,4.90
2006,10,11,01,28,4.90
2006,10,11,01,29,4.90
2006,10,11,01,30,4.90
2006,10,11,01,31,4.90
2006,10,11,01,32,4.90
2006,10,11,01,33,4.80
2006,10,11,01,34,4.80
2006,10,11,01,35,4.80
2006,10,11,01,36,4.80
2006,10,11,01,37,4.80
2006,10,11,01,38,4.80
2006,10,11,01,39,4.80
2006,10,11,01,40,4.80
2006,10,11,01,41,4.80
2006,10,11,01,42,4.80
2006,10,11,01,43,4.80
2006,10,11,01,44,4.80
2006,10,11,01,45,4.80
2006,10,11,01,46,4.70
2006,10,11,01,47,4.70
2006,10,11,01,48,4.70
2006,10,11,01,49,4.70
2006,10,11,01,50,4.70
2006,10,11,01,51,4.70
2006,10,11,01,52,4.70
2006,10,11,01,53,4.70
2006,10,11,01,54,4.70
2006,10,11,01,55,4.70
2006,10,11,01,56,4.70
2006,10,11,01,57,4.70
2006,10,11,01,58,4.70
2006,10,11,01,59,4.60
2006,10,11,02,00,4.60
2006,10,11,02,01,4.60
2006,10,11,02,02,4.60
2006,10,11,02,03,4.60
2006,10,11,02,04,4.60
2006,10,11,02,05,4.60
2006,10,11,02,06,4.60
2006,10,11,02,07,4.60
2006,10,11,02,08,4.60
2006,10,11,02,09,4.60
2006,10,11,02,10,4.50
2006,10,11,02,11,4.50
2006,10,11,02,12,4.50
2006,10,11,02,13,4.50
2006,10,11,02,14,4.40
2006,10,11,02,15,4.40
2006,10,11,02,16,4.40
2006,10,11,02,17,4.40
2006,10,11,02,18,4.40
2006,10,11,02,19,4.40
2006,10,11,02,20,4.40
2006,10,11,02,21,4.40
2006,10,11,02,22,4.40
2006,10,11,02,23,4.40
2006,10,11,02,24,4.40
2006,10,11,02,25,4.30
2006,10,11,02,26,4.30
2006,10,11,02,27,4.30
2006,10,11,02,28,4.30
2006,10,11,02,29,4.30
2006,10,11,02,30,4.30
2006,10,11,02,31,4.30
2006,10,11,02,32,4.30
2006,10,11,02,33,4.30
2006,10,11,02,34,4.30
2006,10,11,02,35,4.30
2006,10,11,02,36,4.30
2006,10,11,02,37,4.30
2006,10,11,02,38,4.30
2006,10,11,02,39,4.30
2006,10,11,02,40,4.30
2006,10,11,02,41,4.30
2006,10,11,02,42,4.30
2006,10,11,02,43,4.30
2006,10,11,02,44,4.30
2006,10,11,02,45,4.30
2006,10,11,02,46,4.30
2006,10,11,02,47,4.20
2006,10,11,02,48,4.20
2006,10,11,02,49,4.20
2006,10,11,02,50,4.20
2006,10,11,02,51,4.20
2006,10,11,02,52,4.20
2006,10,11,02,53,4.20
2006,10,11,02,54,4.20
2006,10,11,02,55,4.20
2006,10,11,02,56,4.20
2006,10,11,02,57,4.20
2006,10,11,02,58,4.10
2006,10,11,02,59,4.10
2006,10,11,03,00,4.10
2006,10,11,03,01,4.10
2006,10,11,03,02,4.10
2006,10,11,03,03,4.10
2006,10,11,03,04,4.10
2006,10,11,03,05,4.10
2006,10,11,03,06,4.10
2006,10,11,03,07,4.10
2006,10,11,03,08,4.10
2006,10,11,03,09,4.10
2006,10,11,03,10,4.10
2006,10,11,03,11,4.10
2006,10,11,03,12,4.10
2006,10,11,03,13,4.10
2006,10,11,03,14,4.10
2006,10,11,03,15,4.10
2006,10,11,03,16,4.10
2006,10,11,03,17,4.00
2006,10,11,03,18,4.00
2006,10,11,03,19,4.00
2006,10,11,03,20,4.00
2006,10,11,03,21,4.00
2006,10,11,03,22,4.00
2006,10,11,03,23,4.00
2006,10,11,03,24,4.00
2006,10,11,03,25,3.90
2006,10,11,03,26,3.90
2006,10,11,03,27,3.90
2006,10,11,03,28,3.90
2006,10,11,03,29,3.90
2006,10,11,03,30,3.90
2006,10,11,03,31,3.90
2006,10,11,03,32,3.90
2006,10,11,03,33,3.90
2006,10,11,03,34,3.90
2006,10,11,03,35,3.90
2006,10,11,03,36,3.90
2006,10,11,03,37,3.90
2006,10,11,03,38,3.90
2006,10,11,03,39,3.90
2006,10,11,03,40,3.90
2006,10,11,03,41,3.80
2006,10,11,03,42,3.80
2006,10,11,03,43,3.80
2006,10,11,03,44,3.80
2006,10,11,03,45,3.80
2006,10,11,03,46,3.80
2006,10,11,03,47,3.80
2006,10,11,03,48,3.80
2006,10,11,03,49,3.80
2006,10,11,03,50,3.80
2006,10,11,03,51,3.80
2006,10,11,03,52,3.80
2006,10,11,03,53,3.80
2006,10,11,03,54,3.80
2006,10,11,03,55,3.80
2006,10,11,03,56,3.80
2006,10,11,03,57,3.80
2006,10,11,03,58,3.80
2006,10,11,03,59,3.70
2006,10,11,04,00,3.70
2006,10,11,04,01,3.70
2006,10,11,04,02,3.70
2006,10,11,04,03,3.70
2006,10,11,04,04,3.70
2006,10,11,04,05,3.70
2006,10,11,04,06,3.70
2006,10,11,04,07,3.70
2006,10,11,04,08,3.70
2006,10,11,04,09,3.70
2006,10,11,04,10,3.70
2006,10,11,04,11,3.70
2006,10,11,04,12,3.70
2006,10,11,04,13,3.70
2006,10,11,04,14,3.70
2006,10,11,04,15,3.60
2006,10,11,04,16,3.60
2006,10,11,04,17,3.60
2006,10,11,04,18,3.60
2006,10,11,04,19,3.60
2006,10,11,04,20,3.60
2006,10,11,04,21,3.60
2006,10,11,04,22,3.60
2006,10,11,04,23,3.60
2006,10,11,04,24,3.60
2006,10,11,04,25,3.60
2006,10,11,04,26,3.60
2006,10,11,04,27,3.60
2006,10,11,04,28,3.60
2006,10,11,04,29,3.60
2006,10,11,04,30,3.50
2006,10,11,04,31,3.50
2006,10,11,04,32,3.50
2006,10,11,04,33,3.50
2006,10,11,04,34,3.50
2006,10,11,04,35,3.50
2006,10,11,04,36,3.50
2006,10,11,04,37,3.50
2006,10,11,04,38,3.50
2006,10,11,04,39,3.50
2006,10,11,04,40,3.50
2006,10,11,04,41,3.50
2006,10,11,04,42,3.50
2006,10,11,04,43,3.40
2006,10,11,04,44,3.40
2006,10,11,04,45,3.40
2006,10,11,04,46,3.40
2006,10,11,04,47,3.40
2006,10,11,04,48,3.40
2006,10,11,04,49,3.40
2006,10,11,04,50,3.40
2006,10,11,04,51,3.40
2006,10,11,04,52,3.40
2006,10,11,04,53,3.40
2006,10,11,04,54,3.40
2006,10,11,04,55,3.40
2006,10,11,04,56,3.40
2006,10,11,04,57,3.40
2006,10,11,04,58,3.40
2006,10,11,04,59,3.40
2006,10,11,05,00,3.40
2006,10,11,05,01,3.30
2006,10,11,05,02,3.30
2006,10,11,05,03,3.30
2006,10,11,05,04,3.30
2006,10,11,05,05,3.30
2006,10,11,05,06,3.30
2006,10,11,05,07,3.30
2006,10,11,05,08,3.30
2006,10,11,05,09,3.30
2006,10,11,05,10,3.30
2006,10,11,05,11,3.30
2006,10,11,05,12,3.30
2006,10,11,05,13,3.30
2006,10,11,05,14,3.30
2006,10,11,05,15,3.30
2006,10,11,05,16,3.30
2006,10,11,05,17,3.30
2006,10,11,05,18,3.30
2006,10,11,05,19,3.20
2006,10,11,05,20,3.20
2006,10,11,05,21,3.20
2006,10,11,05,22,3.20
2006,10,11,05,23,3.20
2006,10,11,05,24,3.20
2006,10,11,05,25,3.20
2006,10,11,05,26,3.20
2006,10,11,05,27,3.20
2006,10,11,05,28,3.20
2006,10,11,05,29,3.20
2006,10,11,05,30,3.20
2006,10,11,05,31,3.20
2006,10,11,05,32,3.20
2006,10,11,05,33,3.20
2006,10,11,05,34,3.20
2006,10,11,05,35,3.20
2006,10,11,05,36,3.20
2006,10,11,05,37,3.20
2006,10,11,05,38,3.20
2006,10,11,05,39,3.20
2006,10,11,05,40,3.20
2006,10,11,05,41,3.20
2006,10,11,05,42,3.20
2006,10,11,05,43,3.20
2006,10,11,05,44,3.10
2006,10,11,05,45,3.10
2006,10,11,05,46,3.10
2006,10,11,05,47,3.10
2006,10,11,05,48,3.10
2006,10,11,05,49,3.10
2006,10,11,05,50,3.10
2006,10,11,05,51,3.10
2006,10,11,05,52,3.10
2006,10,11,05,53,3.10
2006,10,11,05,54,3.10
2006,10,11,05,55,3.10
2006,10,11,05,56,3.10
2006,10,11,05,57,3.10
2006,10,11,05,58,3.10
2006,10,11,05,59,3.10
2006,10,11,06,00,3.10
2006,10,11,06,01,3.10
2006,10,11,06,02,3.10
2006,10,11,06,03,3.10
2006,10,11,06,04,3.10
2006,10,11,06,05,3.10
2006,10,11,06,06,3.10
2006,10,11,06,07,3.10
2006,10,11,06,08,3.00
2006,10,11,06,09,3.00
2006,10,11,06,10,3.00
2006,10,11,06,11,3.00
2006,10,11,06,12,3.00
2006,10,11,06,13,3.00
2006,10,11,06,14,3.00
2006,10,11,06,15,3.00
2006,10,11,06,16,3.00
2006,10,11,06,17,3.00
2006,10,11,06,18,2.90
2006,10,11,06,19,2.90
2006,10,11,06,20,2.90
2006,10,11,06,21,2.90
2006,10,11,06,22,2.90
2006,10,11,06,23,2.90
2006,10,11,06,24,2.90
2006,10,11,06,25,2.90
2006,10,11,06,26,2.90
2006,10,11,06,27,2.90
2006,10,11,06,28,2.90
2006,10,11,06,29,2.90
2006,10,11,06,30,2.90
2006,10,11,06,31,2.90
2006,10,11,06,32,2.90
2006,10,11,06,33,2.90
2006,10,11,06,34,2.90
2006,10,11,06,35,2.90
2006,10,11,06,36,2.90
2006,10,11,06,37,2.90
2006,10,11,06,38,2.90
2006,10,11,06,39,2.90
2006,10,11,06,40,2.80
2006,10,11,06,41,2.80
2006,10,11,06,42,2.80
2006,10,11,06,43,2.80
2006,10,11,06,44,2.80
2006,10,11,06,45,2.80
2006,10,11,06,46,2.80
2006,10,11,06,47,2.80
2006,10,11,06,48,2.80
2006,10,11,06,49,2.80
2006,10,11,06,50,2.80
2006,10,11,06,51,2.80
2006,10,11,06,52,2.80
2006,10,11,06,53,2.80
2006,10,11,06,54,2.80
2006,10,11,06,55,2.80
2006,10,11,06,56,2.80
2006,10,11,06,57,2.80
2006,10,11,06,58,2.80
2006,10,11,06,59,2.80
2006,10,11,07,00,2.80
2006,10,11,07,01,2.80
2006,10,11,07,02,2.80
2006,10,11,07,03,2.80
2006,10,11,07,04,2.80
2006,10,11,07,05,2.80
2006,10,11,07,06,2.80
2006,10,11,07,07,2.80
2006,10,11,07,08,2.80
2006,10,11,07,09,2.80
2006,10,11,07,10,2.80
2006,10,11,07,11,2.80
2006,10,11,07,12,2.80
2006,10,11,07,13,2.80
2006,10,11,07,14,2.80
2006,10,11,07,15,2.80
2006,10,11,07,16,2.70
2006,10,11,07,17,2.80
2006,10,11,07,18,2.80
2006,10,11,07,19,2.80
2006,10,11,07,20,2.80
2006,10,11,07,21,2.80
2006,10,11,07,22,2.80
2006,10,11,07,23,2.80
2006,10,11,07,24,2.80
2006,10,11,07,25,2.80
2006,10,11,07,26,2.80
2006,10,11,07,27,2.80
2006,10,11,07,28,2.80
2006,10,11,07,29,2.80
2006,10,11,07,30,2.80
2006,10,11,07,31,2.80
2006,10,11,07,32,2.80
2006,10,11,07,33,2.80
2006,10,11,07,34,2.80
2006,10,11,07,35,2.70
2006,10,11,07,36,2.70
2006,10,11,07,37,2.70
2006,10,11,07,38,2.70
2006,10,11,07,39,2.70
2006,10,11,07,40,2.70
2006,10,11,07,41,2.70
2006,10,11,07,42,2.70
2006,10,11,07,43,2.70
2006,10,11,07,44,2.70
2006,10,11,07,45,2.70
2006,10,11,07,46,2.70
2006,10,11,07,47,2.70
2006,10,11,07,48,2.70
2006,10,11,07,49,2.70
2006,10,11,07,50,2.70
2006,10,11,07,51,2.70
2006,10,11,07,52,2.70
2006,10,11,07,53,2.70
2006,10,11,07,54,2.70
2006,10,11,07,55,2.70
2006,10,11,07,56,2.70
2006,10,11,07,57,2.70
2006,10,11,07,58,2.70
2006,10,11,07,59,2.70
2006,10,11,08,00,2.70
2006,10,11,08,01,2.70
2006,10,11,08,02,2.70
2006,10,11,08,03,2.80
2006,10,11,08,04,2.80
2006,10,11,08,05,2.80
2006,10,11,08,06,2.80
2006,10,11,08,07,2.80
2006,10,11,08,08,2.80
2006,10,11,08,09,2.80
2006,10,11,08,10,2.80
2006,10,11,08,11,2.80
2006,10,11,08,12,2.90
2006,10,11,08,13,2.90
2006,10,11,08,14,2.90
2006,10,11,08,15,2.90
2006,10,11,08,16,2.90
2006,10,11,08,17,2.90
2006,10,11,08,18,2.90
2006,10,11,08,19,2.90
2006,10,11,08,20,3.00
2006,10,11,08,21,3.00
2006,10,11,08,22,3.00
2006,10,11,08,23,3.10
2006,10,11,08,24,3.10
2006,10,11,08,25,3.10
2006,10,11,08,26,3.10
2006,10,11,08,27,3.10
2006,10,11,08,28,3.20
2006,10,11,08,29,3.20
2006,10,11,08,30,3.20
2006,10,11,08,31,3.30
2006,10,11,08,32,3.30
2006,10,11,08,33,3.30
2006,10,11,08,34,3.40
2006,10,11,08,35,3.40
2006,10,11,08,36,3.40
2006,10,11,08,37,3.50
2006,10,11,08,38,3.50
2006,10,11,08,39,3.50
2006,10,11,08,40,3.60
2006,10,11,08,41,3.60
2006,10,11,08,42,3.60
2006,10,11,08,43,3.70
2006,10,11,08,44,3.70
2006,10,11,08,45,3.70
2006,10,11,08,46,3.80
2006,10,11,08,47,3.90
2006,10,11,08,48,4.00
2006,10,11,08,49,4.10
2006,10,11,08,50,4.20
2006,10,11,08,51,4.30
2006,10,11,08,52,4.40
2006,10,11,08,53,4.40
2006,10,11,08,54,4.50
2006,10,11,08,55,4.50
2006,10,11,08,56,4.60
2006,10,11,08,57,4.60
2006,10,11,08,58,4.70
2006,10,11,08,59,4.70
2006,10,11,09,00,4.80
2006,10,11,09,01,4.90
2006,10,11,09,02,4.90
2006,10,11,09,03,5.00
2006,10,11,09,04,5.00
2006,10,11,09,05,5.10
2006,10,11,09,06,5.10
2006,10,11,09,07,5.20
2006,10,11,09,08,5.30
2006,10,11,09,09,5.40
2006,10,11,09,10,5.50
2006,10,11,09,11,5.60
2006,10,11,09,12,5.70
2006,10,11,09,13,5.80
2006,10,11,09,14,5.90
2006,10,11,09,15,6.10
2006,10,11,09,16,6.30
2006,10,11,09,17,6.40
2006,10,11,09,18,6.50
2006,10,11,09,19,6.60
2006,10,11,09,20,6.70
2006,10,11,09,21,6.80
2006,10,11,09,22,6.90
2006,10,11,09,23,7.00
2006,10,11,09,24,7.20
2006,10,11,09,25,7.30
2006,10,11,09,26,7.40
2006,10,11,09,27,7.50
2006,10,11,09,28,7.60
2006,10,11,09,29,7.60
2006,10,11,09,30,7.70
2006,10,11,09,31,7.80
2006,10,11,09,32,7.90
2006,10,11,09,33,8.00
2006,10,11,09,34,8.10
2006,10,11,09,35,8.20
2006,10,11,09,36,8.30
2006,10,11,09,37,8.40
2006,10,11,09,38,8.60
2006,10,11,09,39,8.70
2006,10,11,09,40,8.90
2006,10,11,09,41,9.10
2006,10,11,09,42,9.40
2006,10,11,09,43,9.50
2006,10,11,09,44,9.70
2006,10,11,09,45,9.80
2006,10,11,09,46,10.00
2006,10,11,09,47,10.20
2006,10,11,09,48,10.30
2006,10,11,09,49,10.40
2006,10,11,09,50,10.50
2006,10,11,09,51,10.60
2006,10,11,09,52,10.60
2006,10,11,09,53,10.70
2006,10,11,09,54,10.80
2006,10,11,09,55,10.90
2006,10,11,09,56,11.00
2006,10,11,09,57,11.00
2006,10,11,09,58,11.10
2006,10,11,09,59,11.20
2006,10,11,10,00,11.30
2006,10,11,10,01,11.50
2006,10,11,10,02,11.60
2006,10,11,10,03,11.70
2006,10,11,10,04,11.80
2006,10,11,10,05,11.90
2006,10,11,10,06,12.00
2006,10,11,10,07,12.10
2006,10,11,10,08,12.20
2006,10,11,10,09,12.30
2006,10,11,10,10,12.40
2006,10,11,10,11,12.50
2006,10,11,10,12,12.60
2006,10,11,10,13,12.70
2006,10,11,10,14,12.80
2006,10,11,10,15,12.80
2006,10,11,10,16,12.90
2006,10,11,10,17,12.90
2006,10,11,10,18,12.80
2006,10,11,10,19,12.80
2006,10,11,10,20,12.90
2006,10,11,10,21,12.90
2006,10,11,10,22,12.90
2006,10,11,10,23,12.90
2006,10,11,10,24,12.90
2006,10,11,10,25,12.90
2006,10,11,10,26,12.90
2006,10,11,10,27,12.90
2006,10,11,10,28,13.00
2006,10,11,10,29,13.10
2006,10,11,10,30,13.10
2006,10,11,10,31,13.20
2006,10,11,10,32,13.30
2006,10,11,10,33,13.30
2006,10,11,10,34,13.40
2006,10,11,10,35,13.40
2006,10,11,10,36,13.40
2006,10,11,10,37,13.50
2006,10,11,10,38,13.50
2006,10,11,10,39,13.50
2006,10,11,10,40,13.60
2006,10,11,10,41,13.60
2006,10,11,10,42,13.70
2006,10,11,10,43,13.70
2006,10,11,10,44,13.70
2006,10,11,10,45,13.80
2006,10,11,10,46,13.90
2006,10,11,10,47,14.00
2006,10,11,10,48,14.20
2006,10,11,10,49,14.30
2006,10,11,10,50,14.50
2006,10,11,10,51,14.60
2006,10,11,10,52,14.70
2006,10,11,10,53,14.90
2006,10,11,10,54,15.00
2006,10,11,10,55,15.00
2006,10,11,10,56,15.00
2006,10,11,10,57,15.10
2006,10,11,10,58,15.20
2006,10,11,10,59,15.30
2006,10,11,11,00,15.40
2006,10,11,11,01,15.50
2006,10,11,11,02,15.60
2006,10,11,11,03,15.60
2006,10,11,11,04,15.70
2006,10,11,11,05,15.80
2006,10,11,11,06,15.80
2006,10,11,11,07,15.80
2006,10,11,11,08,15.80
2006,10,11,11,09,15.80
2006,10,11,11,10,15.80
2006,10,11,11,11,15.90
2006,10,11,11,12,16.00
2006,10,11,11,13,16.10
2006,10,11,11,14,16.20
2006,10,11,11,15,16.20
2006,10,11,11,16,16.30
2006,10,11,11,17,16.30
2006,10,11,11,18,16.40
2006,10,11,11,19,16.40
2006,10,11,11,20,16.40
2006,10,11,11,21,16.40
2006,10,11,11,22,16.40
2006,10,11,11,23,16.50
2006,10,11,11,24,16.50
2006,10,11,11,25,16.50
2006,10,11,11,26,16.60
2006,10,11,11,27,16.60
2006,10,11,11,28,16.60
2006,10,11,11,29,16.70
2006,10,11,11,30,16.70
2006,10,11,11,31,16.80
2006,10,11,11,32,16.80
2006,10,11,11,33,16.90
2006,10,11,11,34,16.90
2006,10,11,11,35,16.90
2006,10,11,11,36,17.00
2006,10,11,11,37,17.10
2006,10,11,11,38,17.10
2006,10,11,11,39,17.20
2006,10,11,11,40,17.30
2006,10,11,11,41,17.30
2006,10,11,11,42,17.40
2006,10,11,11,43,17.30
2006,10,11,11,44,17.20
2006,10,11,11,45,17.20
2006,10,11,11,46,17.20
2006,10,11,11,47,17.20
2006,10,11,11,48,17.20
2006,10,11,11,49,17.20
2006,10,11,11,50,17.20
2006,10,11,11,51,17.30
2006,10,11,11,52,17.30
2006,10,11,11,53,17.30
2006,10,11,11,54,17.40
2006,10,11,11,55,17.50
2006,10,11,11,56,17.50
2006,10,11,11,57,17.60
2006,10,11,11,58,17.60
2006,10,11,11,59,17.60
2006,10,11,12,00,17.60
2006,10,11,12,01,17.70
2006,10,11,12,02,17.70
2006,10,11,12,03,17.80
2006,10,11,12,04,17.80
2006,10,11,12,05,17.80
2006,10,11,12,06,17.80
2006,10,11,12,07,17.80
2006,10,11,12,08,17.80
2006,10,11,12,09,17.80
2006,10,11,12,10,17.90
2006,10,11,12,11,17.90
2006,10,11,12,12,18.00
2006,10,11,12,13,18.10
2006,10,11,12,14,18.10
2006,10,11,12,15,18.20
2006,10,11,12,16,18.20
2006,10,11,12,17,18.30
2006,10,11,12,18,18.30
2006,10,11,12,19,18.30
2006,10,11,12,20,18.40
2006,10,11,12,21,18.40
2006,10,11,12,22,18.40
2006,10,11,12,23,18.50
2006,10,11,12,24,18.50
2006,10,11,12,25,18.50
2006,10,11,12,26,18.50
2006,10,11,12,27,18.50
2006,10,11,12,28,18.60
2006,10,11,12,29,18.60
2006,10,11,12,30,18.60
2006,10,11,12,31,18.70
2006,10,11,12,32,18.70
2006,10,11,12,33,18.80
2006,10,11,12,34,18.80
2006,10,11,12,35,18.90
2006,10,11,12,36,18.90
2006,10,11,12,37,18.90
2006,10,11,12,38,19.00
2006,10,11,12,39,19.10
2006,10,11,12,40,19.10
2006,10,11,12,41,19.10
2006,10,11,12,42,19.10
2006,10,11,12,43,19.10
2006,10,11,12,44,19.10
2006,10,11,12,45,19.10
2006,10,11,12,46,19.20
2006,10,11,12,47,19.20
2006,10,11,12,48,19.20
2006,10,11,12,49,19.20
2006,10,11,12,50,19.20
2006,10,11,12,51,19.20
2006,10,11,12,52,19.20
2006,10,11,12,53,19.20
2006,10,11,12,54,19.20
2006,10,11,12,55,19.20
2006,10,11,12,56,19.30
2006,10,11,12,57,19.30
2006,10,11,12,58,19.40
2006,10,11,12,59,19.40
2006,10,11,13,00,19.40
2006,10,11,13,01,19.50
2006,10,11,13,02,19.50
2006,10,11,13,03,19.60
2006,10,11,13,04,19.70
2006,10,11,13,05,19.80
2006,10,11,13,06,19.80
2006,10,11,13,07,19.80
2006,10,11,13,08,19.90
2006,10,11,13,09,19.90
2006,10,11,13,10,19.90
2006,10,11,13,11,19.90
2006,10,11,13,12,19.90
2006,10,11,13,13,19.90
2006,10,11,13,14,19.90
2006,10,11,13,15,19.90
2006,10,11,13,16,19.90
2006,10,11,13,17,19.90
2006,10,11,13,18,19.90
2006,10,11,13,19,19.90
2006,10,11,13,20,20.00
2006,10,11,13,21,20.00
2006,10,11,13,22,20.00
2006,10,11,13,23,20.00
2006,10,11,13,24,20.00
2006,10,11,13,25,20.00
2006,10,11,13,26,19.90
2006,10,11,13,27,19.90
2006,10,11,13,28,19.80
2006,10,11,13,29,19.90
2006,10,11,13,30,19.90
2006,10,11,13,31,20.00
2006,10,11,13,32,20.00
2006,10,11,13,33,20.10
2006,10,11,13,34,20.20
2006,10,11,13,35,20.30
2006,10,11,13,36,20.40
2006,10,11,13,37,20.40
2006,10,11,13,38,20.50
2006,10,11,13,39,20.60
2006,10,11,13,40,20.60
2006,10,11,13,41,20.70
2006,10,11,13,42,20.70
2006,10,11,13,43,20.80
2006,10,11,13,44,20.80
2006,10,11,13,45,20.80
2006,10,11,13,46,20.60
2006,10,11,13,47,20.60
2006,10,11,13,48,20.50
2006,10,11,13,49,20.40
2006,10,11,13,50,20.40
2006,10,11,13,51,20.30
2006,10,11,13,52,20.30
2006,10,11,13,53,20.40
2006,10,11,13,54,20.40
2006,10,11,13,55,20.40
2006,10,11,13,56,20.50
2006,10,11,13,57,20.50
2006,10,11,13,58,20.60
2006,10,11,13,59,20.60
2006,10,11,14,00,20.70
2006,10,11,14,01,20.70
2006,10,11,14,02,20.70
2006,10,11,14,03,20.70
2006,10,11,14,04,20.70
2006,10,11,14,05,20.70
2006,10,11,14,06,20.70
2006,10,11,14,07,20.70
2006,10,11,14,08,20.80
2006,10,11,14,09,20.80
2006,10,11,14,10,20.80
2006,10,11,14,11,20.80
2006,10,11,14,12,20.80
2006,10,11,14,13,20.80
2006,10,11,14,14,20.80
2006,10,11,14,15,20.80
2006,10,11,14,16,20.80
2006,10,11,14,17,20.80
2006,10,11,14,18,20.80
2006,10,11,14,19,20.90
2006,10,11,14,20,20.90
2006,10,11,14,21,21.00
2006,10,11,14,22,21.00
2006,10,11,14,23,21.00
2006,10,11,14,24,21.00
2006,10,11,14,25,21.00
2006,10,11,14,26,21.00
2006,10,11,14,27,21.00
2006,10,11,14,28,21.00
2006,10,11,14,29,21.00
2006,10,11,14,30,21.10
2006,10,11,14,31,21.10
2006,10,11,14,32,21.10
2006,10,11,14,33,21.10
2006,10,11,14,34,21.10
2006,10,11,14,35,21.10
2006,10,11,14,36,21.10
2006,10,11,14,37,21.00
2006,10,11,14,38,21.10
2006,10,11,14,39,21.10
2006,10,11,14,40,21.10
2006,10,11,14,41,21.10
2006,10,11,14,42,21.10
2006,10,11,14,43,21.10
2006,10,11,14,44,21.20
2006,10,11,14,45,21.20
2006,10,11,14,46,21.20
2006,10,11,14,47,21.20
2006,10,11,14,48,21.30
2006,10,11,14,49,21.30
2006,10,11,14,50,21.30
2006,10,11,14,51,21.30
2006,10,11,14,52,21.30
2006,10,11,14,53,21.30
2006,10,11,14,54,21.30
2006,10,11,14,55,21.40
2006,10,11,14,56,21.50
2006,10,11,14,57,21.50
2006,10,11,14,58,21.50
2006,10,11,14,59,21.40
2006,10,11,15,00,21.40
2006,10,11,15,01,21.40
2006,10,11,15,02,21.40
2006,10,11,15,03,21.40
2006,10,11,15,04,21.50
2006,10,11,15,05,21.50
2006,10,11,15,06,21.50
2006,10,11,15,07,21.50
2006,10,11,15,08,21.50
2006,10,11,15,09,21.50
2006,10,11,15,10,21.40
2006,10,11,15,11,21.40
2006,10,11,15,12,21.40
2006,10,11,15,13,21.40
2006,10,11,15,14,21.40
2006,10,11,15,15,21.40
2006,10,11,15,16,21.30
2006,10,11,15,17,21.30
2006,10,11,15,18,21.30
2006,10,11,15,19,21.30
2006,10,11,15,20,21.30
2006,10,11,15,21,21.30
2006,10,11,15,22,21.30
2006,10,11,15,23,21.40
2006,10,11,15,24,21.40
2006,10,11,15,25,21.40
2006,10,11,15,26,21.40
2006,10,11,15,27,21.50
2006,10,11,15,28,21.50
2006,10,11,15,29,21.60
2006,10,11,15,30,21.60
2006,10,11,15,31,21.60
2006,10,11,15,32,21.60
2006,10,11,15,33,21.60
2006,10,11,15,34,21.60
2006,10,11,15,35,21.60
2006,10,11,15,36,21.60
2006,10,11,15,37,21.60
2006,10,11,15,38,21.60
2006,10,11,15,39,21.60
2006,10,11,15,40,21.70
2006,10,11,15,41,21.70
2006,10,11,15,42,21.80
2006,10,11,15,43,21.80
2006,10,11,15,44,21.80
2006,10,11,15,45,21.80
2006,10,11,15,46,21.70
2006,10,11,15,47,21.70
2006,10,11,15,48,21.60
2006,10,11,15,49,21.60
2006,10,11,15,50,21.60
2006,10,11,15,51,21.60
2006,10,11,15,52,21.60
2006,10,11,15,53,21.70
2006,10,11,15,54,21.60
2006,10,11,15,55,21.60
2006,10,11,15,56,21.70
2006,10,11,15,57,21.70
2006,10,11,15,58,21.60
2006,10,11,15,59,21.60
2006,10,11,16,00,21.60
2006,10,11,16,01,21.60
2006,10,11,16,02,21.60
2006,10,11,16,03,21.70
2006,10,11,16,04,21.70
2006,10,11,16,05,21.60
2006,10,11,16,06,21.60
2006,10,11,16,07,21.60
2006,10,11,16,08,21.60
2006,10,11,16,09,21.60
2006,10,11,16,10,21.60
2006,10,11,16,11,21.60
2006,10,11,16,12,21.60
2006,10,11,16,13,21.60
2006,10,11,16,14,21.60
2006,10,11,16,15,21.70
2006,10,11,16,16,21.70
2006,10,11,16,17,21.70
2006,10,11,16,18,21.70
2006,10,11,16,19,21.70
2006,10,11,16,20,21.70
2006,10,11,16,21,21.60
2006,10,11,16,22,21.60
2006,10,11,16,23,21.60
2006,10,11,16,24,21.60
2006,10,11,16,25,21.70
2006,10,11,16,26,21.70
2006,10,11,16,27,21.70
2006,10,11,16,28,21.70
2006,10,11,16,29,21.80
2006,10,11,16,30,21.80
2006,10,11,16,31,21.80
2006,10,11,16,32,21.80
2006,10,11,16,33,21.80
2006,10,11,16,34,21.70
2006,10,11,16,35,21.70
2006,10,11,16,36,21.70
2006,10,11,16,37,21.70
2006,10,11,16,38,21.70
2006,10,11,16,39,21.60
2006,10,11,16,40,21.60
2006,10,11,16,41,21.60
2006,10,11,16,42,21.60
2006,10,11,16,43,21.60
2006,10,11,16,44,21.50
2006,10,11,16,45,21.50
2006,10,11,16,46,21.40
2006,10,11,16,47,21.40
2006,10,11,16,48,21.30
2006,10,11,16,49,21.30
2006,10,11,16,50,21.30
2006,10,11,16,51,21.20
2006,10,11,16,52,21.20
2006,10,11,16,53,21.10
2006,10,11,16,54,21.10
2006,10,11,16,55,21.00
2006,10,11,16,56,21.00
2006,10,11,16,57,20.90
2006,10,11,16,58,20.90
2006,10,11,16,59,20.80
2006,10,11,17,00,20.80
2006,10,11,17,01,20.80
2006,10,11,17,02,20.70
2006,10,11,17,03,20.60
2006,10,11,17,04,20.60
2006,10,11,17,05,20.60
2006,10,11,17,06,20.50
2006,10,11,17,07,20.50
2006,10,11,17,08,20.50
2006,10,11,17,09,20.40
2006,10,11,17,10,20.40
2006,10,11,17,11,20.40
2006,10,11,17,12,20.30
2006,10,11,17,13,20.30
2006,10,11,17,14,20.30
2006,10,11,17,15,20.20
2006,10,11,17,16,20.20
2006,10,11,17,17,20.10
2006,10,11,17,18,20.10
2006,10,11,17,19,20.10
2006,10,11,17,20,20.00
2006,10,11,17,21,20.00
2006,10,11,17,22,19.90
2006,10,11,17,23,19.90
2006,10,11,17,24,19.90
2006,10,11,17,25,19.80
2006,10,11,17,26,19.80
2006,10,11,17,27,19.70
2006,10,11,17,28,19.70
2006,10,11,17,29,19.70
2006,10,11,17,30,19.60
2006,10,11,17,31,19.60
2006,10,11,17,32,19.60
2006,10,11,17,33,19.50
2006,10,11,17,34,19.50
2006,10,11,17,35,19.50
2006,10,11,17,36,19.50
2006,10,11,17,37,19.40
2006,10,11,17,38,19.40
2006,10,11,17,39,19.40
2006,10,11,17,40,19.30
2006,10,11,17,41,19.30
2006,10,11,17,42,19.30
2006,10,11,17,43,19.20
2006,10,11,17,44,19.20